Weather History for PASO - October, 2011

Change the Weather History Date:

Saturday, October 1, 2011

  Actual Average (PAHO) Record (PAHO)
Temperature  
Mean Temperature 44 °F -  
Max Temperature 52 °F 50 °F 64 °F (1954)
Min Temperature 39 °F 37 °F 23 °F (1957)
Degree Days  
Heating Degree Days 20    
Moisture  
Dew Point 42 °F    
Average Humidity 92    
Maximum Humidity 100    
Minimum Humidity 71    
Precipitation  
Precipitation 0.24 in - - ()
Sea Level Pressure  
Sea Level Pressure 29.45 in    
Wind  
Wind Speed 3 mph (NNE)    
Max Wind Speed 9 mph    
Max Gust Speed -    
Visibility 8 miles    
Events Rain    
Averages and records for this station are not official NWS values.
T = Trace of Precipitation, MM = Missing Value Source: NWS Daily Summary

Daily Weather History Graph

Daily Weather History Graph

Search for Another Location

Airport or City:

Trip Planner

Search our weather history database for the weather conditions in past years. The results will help you decide how hot, cold, wet, or windy it might be!

Date:

Astronomy

Oct. 01, 2011 Rise Set
Actual Time 8:11 AM AKDT 7:39 PM AKDT
Civil Twilight 7:31 AM AKDT 8:20 PM AKDT
Nautical Twilight 6:43 AM AKDT 9:08 PM AKDT
Astronomical Twilight 5:52 AM AKDT 9:58 PM AKDT
Moon 3:03 PM AKDT (10/1) 9:13 PM AKDT (10/1)
Length of Visible Light 12h 49m
Length of Day
11h 27m
Waxing Crescent, 26% of the Moon is Illuminated
Oct 1
Waxing Crescent
Oct 3
First Quarter
Oct 11
Full
Oct 19
Last Quarter
Oct 26
New

Hourly Weather History & Observations

Time (AKDT) Temp. Windchill Dew Point Humidity Pressure Visibility Wind Dir Wind Speed Gust Speed Precip Events Conditions
12:53 AM 46.0 °F 43.1 °F 37.9 °F 73% 29.48 in 10.0 mi North 5.8 mph - N/A   Clear
1:53 AM 43.0 °F - 39.0 °F 86% 29.49 in 10.0 mi Calm Calm - N/A   Partly Cloudy
2:53 AM 42.1 °F - 39.0 °F 89% 29.49 in 10.0 mi Calm Calm - N/A   Mostly Cloudy
3:53 AM 41.0 °F - 39.0 °F 93% 29.49 in 10.0 mi Calm Calm - 0.02 in   Mostly Cloudy
4:53 AM 39.9 °F - 39.0 °F 97% 29.49 in 10.0 mi Calm Calm - 0.01 in   Scattered Clouds
5:53 AM 39.9 °F - 39.0 °F 97% 29.48 in 10.0 mi Calm Calm - 0.01 in   Partly Cloudy
6:53 AM 39.9 °F 37.8 °F 39.0 °F 97% 29.48 in 10.0 mi Variable 3.5 mph - 0.01 in   Overcast
7:53 AM 42.1 °F - 39.9 °F 92% 29.48 in 10.0 mi Calm Calm - 0.01 in   Overcast
8:53 AM 42.1 °F - 41.0 °F 96% 29.49 in 10.0 mi Calm Calm - 0.00 in   Overcast
9:53 AM 45.0 °F - 43.0 °F 93% 29.49 in 10.0 mi Calm Calm - 0.01 in   Mostly Cloudy
10:53 AM 50.0 °F - 44.1 °F 80% 29.48 in 10.0 mi NNE 4.6 mph - 0.01 in   Overcast
11:53 AM 50.0 °F - 41.0 °F 71% 29.47 in 10.0 mi North 5.8 mph - 0.01 in   Overcast
12:53 PM 48.9 °F - 42.1 °F 77% 29.47 in 10.0 mi North 8.1 mph - 0.01 in   Overcast
1:53 PM 46.0 °F 44.8 °F 43.0 °F 89% 29.44 in 8.0 mi North 3.5 mph - 0.01 in Rain Light Rain
2:31 PM 46.4 °F - 44.6 °F 93% 29.43 in 4.0 mi Calm Calm - 0.01 in Rain Rain
2:40 PM 44.6 °F 43.1 °F 44.6 °F 100% 29.43 in 2.5 mi North 3.5 mph - 0.01 in Rain Rain
2:53 PM 45.0 °F 40.1 °F 43.0 °F 93% 29.43 in 2.0 mi North 9.2 mph - 0.01 in Rain Heavy Rain
3:14 PM 44.6 °F 39.7 °F 42.8 °F 93% 29.43 in 3.0 mi North 9.2 mph - N/A Rain Heavy Rain
3:21 PM 44.6 °F 43.1 °F 42.8 °F 93% 29.43 in 1.8 mi Variable 3.5 mph - N/A Rain Heavy Rain
3:34 PM 44.6 °F 40.7 °F 42.8 °F 93% 29.42 in 3.0 mi North 6.9 mph - N/A Rain Rain
3:53 PM 44.1 °F 41.5 °F 43.0 °F 96% 29.42 in 3.0 mi Variable 4.6 mph - N/A Rain Rain
4:34 PM 44.6 °F 43.1 °F 42.8 °F 93% 29.41 in 9.0 mi NNE 3.5 mph - N/A Rain Light Rain
5:53 PM 43.0 °F - 43.0 °F 100% 29.39 in 10.0 mi Calm Calm - 0.02 in Rain Light Rain
6:53 PM 43.0 °F 40.3 °F 42.1 °F 97% 29.40 in 10.0 mi SSE 4.6 mph - 0.01 in Rain Light Rain
7:53 PM 42.1 °F - 42.1 °F 100% 29.41 in 10.0 mi Calm Calm - 0.02 in   Overcast
8:53 PM 41.0 °F - 41.0 °F 100% 29.42 in 10.0 mi Calm Calm - 0.02 in   Overcast
9:53 PM 42.1 °F - 42.1 °F 100% 29.42 in 7.0 mi Calm Calm - 0.02 in Rain Light Rain
10:53 PM 42.1 °F - 42.1 °F 100% 29.44 in 10.0 mi Calm Calm - 0.01 in Rain Light Rain
11:53 PM 43.0 °F - 43.0 °F 100% 29.46 in 10.0 mi Calm Calm - 0.02 in Rain Light Rain